AFL2182 UNNT-UUEE

Flight info

Callsign AFL2182
Flight time N/A
Altitude 34000
Route UNNT/25 OGAMA A308 OSNAB R362 KZ A575 UNKIS P982 SOMUD/K0856F360 P982 BADIK N181 BAPUN N869 REKPA N181 ROMTA
Aircraft A320/M-SDE3FGHIRWY/LB1

Departure

Time N/A
Airport Novosibirsk Tolmachevo Airport (UNNT)

Arrival

Time 2026-04-30 19:49
Airport Sheremetyevo International Airport (UUEE)
Time Latitude Longitude Altitude Speed Heading
2026-04-30 17:39 58.80730 63.13106 34141 ft 405 kts 274°
2026-04-30 17:42 58.87430 62.60013 34146 ft 408 kts 274°
2026-04-30 17:43 58.90719 62.33340 34158 ft 408 kts 274°
2026-04-30 17:44 58.94572 62.01265 34173 ft 408 kts 274°
2026-04-30 17:47 59.00139 61.52967 34156 ft 406 kts 272°
2026-04-30 17:48 59.03711 61.15265 34150 ft 406 kts 272°
2026-04-30 17:50 59.07743 60.72200 34150 ft 405 kts 271°
2026-04-30 17:52 59.10671 60.39744 34154 ft 407 kts 271°
2026-04-30 17:54 59.14892 59.91127 34165 ft 404 kts 271°
2026-04-30 17:56 59.18490 59.47914 34148 ft 405 kts 270°
2026-04-30 17:58 59.21094 59.15402 34182 ft 403 kts 270°
2026-04-30 18:00 59.24430 58.72039 34172 ft 404 kts 270°
2026-04-30 18:01 59.26452 58.44853 34173 ft 404 kts 270°
2026-04-30 18:02 59.28791 58.12207 34175 ft 406 kts 270°
2026-04-30 18:04 59.30988 57.81011 34151 ft 409 kts 270°
2026-04-30 18:06 59.33967 57.36861 34156 ft 411 kts 270°
2026-04-30 18:08 59.35285 56.97853 34136 ft 408 kts 261°
2026-04-30 18:10 59.33902 56.53387 34157 ft 409 kts 260°
2026-04-30 18:11 59.32551 56.14360 34171 ft 412 kts 260°
2026-04-30 18:13 59.31510 55.86424 34157 ft 413 kts 260°
2026-04-30 18:14 59.30400 55.58378 34155 ft 414 kts 259°
2026-04-30 18:15 59.29002 55.24676 34155 ft 414 kts 259°
2026-04-30 18:16 59.28008 55.02225 34157 ft 414 kts 259°
2026-04-30 18:17 59.27501 54.91002 34174 ft 415 kts 259°
2026-04-30 18:18 59.26711 54.74130 34158 ft 416 kts 259°
2026-04-30 18:18 59.26178 54.62859 34162 ft 416 kts 259°
2026-04-30 18:19 59.25630 54.51585 34161 ft 417 kts 259°
2026-04-30 18:19 59.25078 54.40390 34161 ft 417 kts 259°
2026-04-30 18:20 59.24520 54.29032 34169 ft 418 kts 259°
2026-04-30 18:20 59.23949 54.17815 34166 ft 418 kts 259°
2026-04-30 18:21 59.23361 54.06501 34166 ft 419 kts 259°
2026-04-30 18:21 59.22763 53.95192 34166 ft 419 kts 259°
2026-04-30 18:22 59.22160 53.83871 34168 ft 419 kts 258°
2026-04-30 18:22 59.21220 53.66911 34177 ft 419 kts 258°
2026-04-30 18:23 59.20574 53.55585 34183 ft 421 kts 259°
2026-04-30 18:23 59.19926 53.44211 34166 ft 422 kts 259°
2026-04-30 18:24 59.18958 53.27087 34162 ft 424 kts 259°
2026-04-30 18:25 59.18300 53.15655 34168 ft 425 kts 259°
2026-04-30 18:25 59.17287 52.98486 34172 ft 425 kts 259°
2026-04-30 18:26 59.16253 52.81311 34176 ft 426 kts 259°
2026-04-30 18:27 59.15202 52.64093 34172 ft 427 kts 258°
2026-04-30 18:28 59.14108 52.46850 34175 ft 428 kts 258°
2026-04-30 18:28 59.12993 52.29595 34194 ft 429 kts 259°
2026-04-30 18:29 59.11461 52.06473 34166 ft 432 kts 259°
2026-04-30 18:30 59.09893 51.83216 34164 ft 434 kts 259°
2026-04-30 18:31 59.08690 51.65745 34170 ft 435 kts 258°
2026-04-30 18:32 59.07458 51.48264 34175 ft 435 kts 258°
2026-04-30 18:33 59.06202 51.30784 34182 ft 436 kts 258°
2026-04-30 18:33 59.04917 51.13345 34175 ft 437 kts 258°
2026-04-30 18:34 59.03602 50.95827 34191 ft 438 kts 259°
2026-04-30 18:35 59.02727 50.84106 34181 ft 439 kts 259°
2026-04-30 18:35 59.01840 50.72386 34189 ft 439 kts 258°
2026-04-30 18:36 59.00474 50.54692 34179 ft 441 kts 258°
2026-04-30 18:37 58.99083 50.37055 34182 ft 441 kts 258°
2026-04-30 18:37 58.98139 50.25301 34183 ft 441 kts 258°
2026-04-30 18:38 58.97174 50.13549 34185 ft 442 kts 258°
2026-04-30 18:38 58.96202 50.01797 34190 ft 442 kts 258°
2026-04-30 18:39 58.95219 49.90039 34184 ft 442 kts 258°
2026-04-30 18:39 58.94222 49.78274 34180 ft 443 kts 258°
2026-04-30 18:40 58.93214 49.66492 34177 ft 444 kts 258°
2026-04-30 18:40 58.92191 49.54717 34180 ft 444 kts 258°
2026-04-30 18:41 58.91180 49.42929 34180 ft 444 kts 258°
2026-04-30 18:41 58.90161 49.31140 34182 ft 444 kts 258°
2026-04-30 18:42 58.89132 49.19364 34184 ft 445 kts 258°
2026-04-30 18:42 58.87535 49.01678 34183 ft 445 kts 257°
2026-04-30 18:45 58.81194 48.37087 34174 ft 448 kts 258°
2026-04-30 18:46 58.80268 48.27179 34167 ft 449 kts 258°
2026-04-30 18:46 58.79163 48.15320 34171 ft 449 kts 258°
2026-04-30 18:47 58.78030 48.03462 34172 ft 450 kts 258°
2026-04-30 18:47 58.76875 47.91605 34176 ft 450 kts 258°
2026-04-30 18:48 58.75707 47.79751 34180 ft 451 kts 258°
2026-04-30 18:48 58.74536 47.67899 34180 ft 450 kts 257°
2026-04-30 18:49 58.73348 47.56060 34181 ft 450 kts 257°
2026-04-30 18:49 58.72156 47.44235 34183 ft 450 kts 257°
2026-04-30 18:50 58.70948 47.32413 34181 ft 450 kts 257°
2026-04-30 18:50 58.69730 47.20615 34179 ft 450 kts 257°
2026-04-30 18:51 58.68493 47.08803 34171 ft 451 kts 258°
2026-04-30 18:51 58.67252 46.96977 34167 ft 452 kts 258°
2026-04-30 18:52 58.66000 46.85138 34166 ft 452 kts 257°
2026-04-30 18:52 58.64740 46.73294 34170 ft 453 kts 257°
2026-04-30 18:53 58.63461 46.61454 34177 ft 453 kts 257°
2026-04-30 18:53 58.62158 46.49623 34178 ft 453 kts 257°
2026-04-30 18:54 58.60867 46.37870 34176 ft 454 kts 257°
2026-04-30 18:54 58.59556 46.26030 34179 ft 454 kts 257°
2026-04-30 18:55 58.58226 46.14192 34180 ft 454 kts 257°
2026-04-30 18:55 58.56217 45.96419 34191 ft 455 kts 257°
2026-04-30 18:56 58.54174 45.78646 34182 ft 456 kts 257°
2026-04-30 18:57 58.51923 45.60956 34177 ft 457 kts 255°
2026-04-30 18:57 58.50291 45.49201 34174 ft 457 kts 255°
2026-04-30 18:58 58.47873 45.31569 34175 ft 457 kts 255°
2026-04-30 18:59 58.45456 45.13921 34176 ft 458 kts 255°
2026-04-30 19:00 58.42186 44.90406 34172 ft 458 kts 255°
2026-04-30 19:01 58.38872 44.66915 34175 ft 459 kts 255°
2026-04-30 19:02 58.36354 44.49370 34181 ft 460 kts 255°
2026-04-30 19:03 58.32935 44.25867 34180 ft 461 kts 255°
2026-04-30 19:04 58.29497 44.02357 34184 ft 462 kts 255°
2026-04-30 19:05 58.25988 43.78884 34191 ft 461 kts 255°
2026-04-30 19:06 58.22443 43.55467 34184 ft 462 kts 254°
2026-04-30 19:06 58.19750 43.37891 34180 ft 463 kts 255°
2026-04-30 19:07 58.17027 43.20289 34183 ft 464 kts 254°
2026-04-30 19:08 58.13354 42.96836 34178 ft 465 kts 254°
2026-04-30 19:09 58.10566 42.79261 34181 ft 465 kts 254°
2026-04-30 19:09 58.08687 42.67549 34186 ft 466 kts 254°
2026-04-30 19:10 58.04908 42.44139 34186 ft 466 kts 254°
2026-04-30 19:11 58.02044 42.26599 34177 ft 466 kts 254°
2026-04-30 19:12 58.00112 42.14913 34173 ft 467 kts 254°
2026-04-30 19:12 57.98166 42.03230 34175 ft 468 kts 254°
2026-04-30 19:13 57.94265 41.79920 34177 ft 468 kts 254°
2026-04-30 19:14 57.92287 41.68236 34172 ft 469 kts 254°
2026-04-30 19:14 57.90290 41.56565 34175 ft 469 kts 254°
2026-04-30 19:15 57.88303 41.44883 34177 ft 469 kts 254°
2026-04-30 19:15 57.85326 41.27373 34175 ft 469 kts 254°
2026-04-30 19:16 57.83316 41.15711 34177 ft 469 kts 253°
2026-04-30 19:17 57.80287 40.98240 34166 ft 470 kts 254°
2026-04-30 19:17 57.77224 40.80773 34167 ft 470 kts 253°
2026-04-30 19:18 57.74124 40.63321 34174 ft 471 kts 253°
2026-04-30 19:19 57.72049 40.51695 34161 ft 471 kts 253°
2026-04-30 19:19 57.68924 40.34262 34166 ft 472 kts 253°
2026-04-30 19:20 57.66823 40.22654 34168 ft 472 kts 253°
2026-04-30 19:21 57.63658 40.05331 34178 ft 472 kts 253°
2026-04-30 19:22 57.59383 39.82159 34158 ft 473 kts 253°
2026-04-30 19:22 57.56146 39.64741 33452 ft 474 kts 253°
2026-04-30 19:23 57.52870 39.47357 32660 ft 474 kts 253°
2026-04-30 19:24 57.50682 39.35799 32152 ft 473 kts 253°
2026-04-30 19:24 57.49582 39.30035 31897 ft 473 kts 253°
2026-04-30 19:24 57.47372 39.18498 31387 ft 474 kts 253°
2026-04-30 19:25 57.44050 39.01194 30657 ft 474 kts 253°
2026-04-30 19:26 57.41820 38.89693 30160 ft 474 kts 253°
2026-04-30 19:26 57.39584 38.78212 29569 ft 474 kts 253°
2026-04-30 19:26 57.38477 38.72542 29281 ft 474 kts 253°
2026-04-30 19:27 57.36222 38.61061 28678 ft 476 kts 254°
2026-04-30 19:27 57.33937 38.49516 28124 ft 478 kts 253°
2026-04-30 19:28 57.32788 38.43742 27465 ft 478 kts 253°
2026-04-30 19:28 57.30381 38.32386 24866 ft 469 kts 247°
2026-04-30 19:29 57.27111 38.21933 22618 ft 469 kts 242°
2026-04-30 19:29 57.25463 38.16794 21792 ft 463 kts 242°
2026-04-30 19:30 57.20624 38.01657 19343 ft 451 kts 241°
2026-04-30 19:30 57.17527 37.92014 18857 ft 420 kts 241°
2026-04-30 19:31 57.14650 37.83138 18612 ft 388 kts 241°
2026-04-30 19:31 57.13281 37.78950 18486 ft 375 kts 239°
2026-04-30 19:31 57.09717 37.72360 18022 ft 360 kts 213°
2026-04-30 19:32 57.07485 37.70318 17669 ft 358 kts 200°
2026-04-30 19:32 57.05082 37.69183 17274 ft 355 kts 190°
2026-04-30 19:32 57.03475 37.68644 17179 ft 354 kts 190°
2026-04-30 19:32 57.01046 37.67820 17178 ft 356 kts 191°
2026-04-30 19:33 56.98610 37.66993 16566 ft 354 kts 191°
2026-04-30 19:33 56.96198 37.66171 15943 ft 349 kts 191°
2026-04-30 19:33 56.93813 37.65351 15675 ft 348 kts 191°
2026-04-30 19:33 56.91462 37.64328 15417 ft 346 kts 195°
2026-04-30 19:34 56.89143 37.63138 15162 ft 345 kts 197°
2026-04-30 19:34 56.86849 37.61898 14901 ft 343 kts 197°
2026-04-30 19:34 56.82293 37.59387 14411 ft 340 kts 197°
2026-04-30 19:35 56.80031 37.58147 14159 ft 338 kts 197°
2026-04-30 19:35 56.77781 37.56920 13898 ft 337 kts 197°
2026-04-30 19:35 56.75542 37.55710 13616 ft 335 kts 197°
2026-04-30 19:35 56.73310 37.54515 13338 ft 333 kts 197°
2026-04-30 19:36 56.71094 37.53335 13064 ft 330 kts 197°
2026-04-30 19:36 56.68898 37.52171 12789 ft 327 kts 197°
2026-04-30 19:36 56.64548 37.49916 12248 ft 324 kts 191°
2026-04-30 19:37 56.62310 37.49779 11979 ft 322 kts 174°
2026-04-30 19:37 56.60086 37.50232 11716 ft 321 kts 173°
2026-04-30 19:37 56.57874 37.50698 11399 ft 319 kts 173°
2026-04-30 19:37 56.55680 37.51167 11003 ft 316 kts 173°
2026-04-30 19:38 56.53504 37.51635 10610 ft 314 kts 173°
2026-04-30 19:38 56.51367 37.52092 10213 ft 310 kts 173°
2026-04-30 19:38 56.49293 37.52531 9929 ft 293 kts 173°
2026-04-30 19:38 56.47294 37.52951 9338 ft 287 kts 173°
2026-04-30 19:39 56.45324 37.53366 8686 ft 284 kts 173°
2026-04-30 19:39 56.43373 37.53779 8030 ft 281 kts 173°
2026-04-30 19:39 56.41467 37.54453 7358 ft 278 kts 165°
2026-04-30 19:39 56.39598 37.55333 6714 ft 276 kts 165°
2026-04-30 19:40 56.37761 37.56230 6072 ft 272 kts 164°
2026-04-30 19:40 56.35939 37.57127 5426 ft 271 kts 165°
2026-04-30 19:40 56.34129 37.58018 5051 ft 268 kts 165°
2026-04-30 19:40 56.32338 37.58897 4660 ft 266 kts 165°
2026-04-30 19:41 56.30559 37.59765 4261 ft 264 kts 165°
2026-04-30 19:41 56.28798 37.60625 4005 ft 261 kts 165°
2026-04-30 19:41 56.27039 37.61478 4004 ft 262 kts 165°
2026-04-30 19:41 56.25275 37.62332 4005 ft 263 kts 165°
2026-04-30 19:42 56.23508 37.63185 4002 ft 263 kts 165°
2026-04-30 19:42 56.21745 37.64035 4003 ft 263 kts 165°
2026-04-30 19:42 56.19980 37.64888 4003 ft 263 kts 165°
2026-04-30 19:42 56.18212 37.65743 4003 ft 263 kts 165°
2026-04-30 19:43 56.16474 37.66583 4003 ft 263 kts 165°
2026-04-30 19:43 56.14706 37.67436 4005 ft 263 kts 165°
2026-04-30 19:43 56.12942 37.68284 4005 ft 263 kts 165°
2026-04-30 19:44 56.09529 37.69913 3802 ft 242 kts 166°
2026-04-30 19:44 56.07939 37.70672 3676 ft 231 kts 165°
2026-04-30 19:44 56.06413 37.71407 3541 ft 224 kts 165°
2026-04-30 19:44 56.04897 37.72016 3348 ft 222 kts 178°
2026-04-30 19:45 56.03413 37.71662 3262 ft 211 kts 201°
2026-04-30 19:45 56.02173 37.70429 3210 ft 200 kts 222°
2026-04-30 19:45 56.01289 37.68580 3165 ft 194 kts 242°
2026-04-30 19:45 56.00809 37.66356 3057 ft 189 kts 256°
2026-04-30 19:46 56.00495 37.64211 2955 ft 171 kts 256°
2026-04-30 19:46 56.00204 37.62227 2750 ft 160 kts 256°
2026-04-30 19:46 55.99935 37.60393 2564 ft 146 kts 256°
2026-04-30 19:46 55.99685 37.58698 2353 ft 138 kts 256°
2026-04-30 19:47 55.99444 37.57063 2163 ft 135 kts 256°
2026-04-30 19:47 55.99286 37.55990 2047 ft 134 kts 256°
2026-04-30 19:47 55.98970 37.53848 1785 ft 133 kts 256°
2026-04-30 19:47 55.98734 37.52248 1596 ft 133 kts 256°
2026-04-30 19:48 55.98499 37.50659 1401 ft 132 kts 256°
2026-04-30 19:48 55.98266 37.49076 1218 ft 131 kts 256°
2026-04-30 19:48 55.98031 37.47506 1047 ft 131 kts 255°
2026-04-30 19:48 55.97797 37.45944 838 ft 130 kts 256°
2026-04-30 19:49 55.97566 37.44387 713 ft 130 kts 256°
2026-04-30 19:49 55.97185 37.41771 646 ft 63 kts 255°
2026-04-30 19:49 55.97134 37.41408 640 ft 12 kts 270°
2026-04-30 19:50 55.97193 37.41332 639 ft 11 kts 345°
2026-04-30 19:50 55.97261 37.41300 639 ft 9 kts 345°
2026-04-30 19:50 55.97316 37.41274 640 ft 7 kts 345°
2026-04-30 19:50 55.97373 37.41247 640 ft 16 kts 345°
2026-04-30 19:51 55.97480 37.41197 643 ft 12 kts 345°
2026-04-30 19:51 55.97558 37.41159 643 ft 11 kts 344°
2026-04-30 19:51 55.97622 37.41177 639 ft 9 kts 54°
2026-04-30 19:51 55.97640 37.41282 641 ft 12 kts 75°
2026-04-30 19:52 55.97661 37.41416 640 ft 10 kts 77°
2026-04-30 19:52 55.97707 37.41464 643 ft 8 kts 349°
2026-04-30 19:52 55.97755 37.41445 641 ft 6 kts 346°
2026-04-30 19:52 55.97791 37.41422 641 ft 4 kts 312°
2026-04-30 19:53 55.97793 37.41374 641 ft 4 kts 257°
2026-04-30 19:53 55.97785 37.41316 645 ft 5 kts 256°
2026-04-30 19:53 55.97784 37.41311 644 ft 0 kts 256°